contact:dominique.lefevre@mio.osupytheas.fr, maurice.libes@osupytheas.fr, didier.mallarino@osupytheas.fr
Project:EMSO http://www.emso-fr.org/EMSO-France
Depth: 2436.0 m
Title:EMSO Ligure Ouest : Data MII capteur CSTAR
DateTime,Latitude,Longitude,Instrument_Serial,Reference_Counts,Signal_Counts,Corrected_Signal_raw_counts,Calculated_Beam_c_inverse_meters,Internal_thermistor_counts
DateTime,Latitude,Longitude,Instrument_Serial,Reference_Counts,Signal_Counts,Corrected_Signal_raw_counts,Calculated_Beam_c_inverse_meters,Internal_thermistor_counts
2019-07-18T00:00:39,42.805,6.029,CST-1368DR,8637,12084,15470,0.038,551
2019-07-18T00:03:40,42.805,6.029,CST-1368DR,8637,12083,15468,0.038,550
2019-07-18T00:06:42,42.805,6.029,CST-1368DR,8637,12061,15440,0.045,551
2019-07-18T00:09:43,42.805,6.029,CST-1368DR,8637,12085,15471,0.037,550
2019-07-18T00:12:45,42.805,6.029,CST-1368DR,8637,12084,15470,0.038,551
2019-07-18T00:15:47,42.805,6.029,CST-1368DR,8637,12083,15469,0.038,551
2019-07-18T00:18:48,42.805,6.029,CST-1368DR,8637,12084,15470,0.038,551
2019-07-18T00:21:50,42.805,6.029,CST-1368DR,8637,12082,15467,0.038,551
2019-07-18T00:24:52,42.805,6.029,CST-1368DR,8637,12082,15468,0.038,551
2019-07-18T00:27:53,42.805,6.029,CST-1368DR,8637,12083,15469,0.038,551
2019-07-18T00:30:55,42.805,6.029,CST-1368DR,8637,12084,15470,0.038,550
2019-07-18T00:33:57,42.805,6.029,CST-1368DR,8636,12034,15408,0.054,551
2019-07-18T00:36:58,42.805,6.029,CST-1368DR,8637,12082,15468,0.038,551
2019-07-18T00:40:00,42.805,6.029,CST-1368DR,8637,12079,15463,0.039,551
2019-07-18T00:43:01,42.805,6.029,CST-1368DR,8637,12083,15469,0.038,551
2019-07-18T00:46:03,42.805,6.029,CST-1368DR,8637,12082,15468,0.038,551
2019-07-18T00:49:05,42.805,6.029,CST-1368DR,8637,12080,15465,0.039,551
2019-07-18T00:52:06,42.805,6.029,CST-1368DR,8637,12081,15466,0.039,551
2019-07-18T00:55:08,42.805,6.029,CST-1368DR,8637,12077,15461,0.040,551
2019-07-18T00:58:10,42.805,6.029,CST-1368DR,8637,12084,15470,0.038,550
2019-07-18T01:01:11,42.805,6.029,CST-1368DR,8637,12081,15466,0.039,550
2019-07-18T01:04:13,42.805,6.029,CST-1368DR,8636,12080,15466,0.039,551
2019-07-18T01:07:14,42.805,6.029,CST-1368DR,8636,12082,15470,0.038,551
2019-07-18T01:10:16,42.805,6.029,CST-1368DR,8636,12081,15468,0.038,551
2019-07-18T01:13:18,42.805,6.029,CST-1368DR,8636,12080,15467,0.038,551
2019-07-18T01:16:19,42.805,6.029,CST-1368DR,8636,12082,15469,0.038,551
2019-07-18T01:19:21,42.805,6.029,CST-1368DR,8636,12082,15469,0.038,551
2019-07-18T01:22:23,42.805,6.029,CST-1368DR,8636,12081,15468,0.038,551
2019-07-18T01:25:24,42.805,6.029,CST-1368DR,8636,12081,15468,0.038,551
2019-07-18T01:28:26,42.805,6.029,CST-1368DR,8636,12072,15457,0.041,551
2019-07-18T01:31:28,42.805,6.029,CST-1368DR,8636,12081,15468,0.038,550
2019-07-18T01:34:29,42.805,6.029,CST-1368DR,8636,12077,15463,0.039,551
2019-07-18T01:37:31,42.805,6.029,CST-1368DR,8636,12071,15455,0.041,551
2019-07-18T01:40:33,42.805,6.029,CST-1368DR,8636,12080,15467,0.038,551
2019-07-18T01:43:34,42.805,6.029,CST-1368DR,8636,12080,15466,0.039,551
2019-07-18T01:46:36,42.805,6.029,CST-1368DR,8636,12080,15467,0.038,551
2019-07-18T01:49:38,42.805,6.029,CST-1368DR,8636,12080,15467,0.038,550
2019-07-18T01:52:40,42.805,6.029,CST-1368DR,8636,12080,15466,0.039,551
2019-07-18T01:55:41,42.805,6.029,CST-1368DR,8636,12080,15466,0.039,551
2019-07-18T01:58:43,42.805,6.029,CST-1368DR,8636,12079,15465,0.039,550
2019-07-18T02:01:44,42.805,6.029,CST-1368DR,8636,12081,15468,0.038,551
2019-07-18T02:04:46,42.805,6.029,CST-1368DR,8636,12079,15465,0.039,551
2019-07-18T02:07:48,42.805,6.029,CST-1368DR,8636,12081,15468,0.038,550
2019-07-18T02:10:49,42.805,6.029,CST-1368DR,8636,12080,15466,0.039,550
2019-07-18T02:13:51,42.805,6.029,CST-1368DR,8636,12077,15463,0.039,551
2019-07-18T02:16:53,42.805,6.029,CST-1368DR,8636,12078,15464,0.039,551
2019-07-18T02:19:54,42.805,6.029,CST-1368DR,8636,12080,15466,0.039,551
2019-07-18T02:22:56,42.805,6.029,CST-1368DR,8636,12080,15466,0.039,550
2019-07-18T02:25:57,42.805,6.029,CST-1368DR,8636,12081,15468,0.038,551
2019-07-18T02:28:59,42.805,6.029,CST-1368DR,8636,12079,15465,0.039,551
2019-07-18T02:32:01,42.805,6.029,CST-1368DR,8635,12077,15464,0.039,551
2019-07-18T02:35:02,42.805,6.029,CST-1368DR,8635,12077,15465,0.039,551
2019-07-18T02:38:04,42.805,6.029,CST-1368DR,8635,12077,15464,0.039,551
2019-07-18T02:41:06,42.805,6.029,CST-1368DR,8636,12080,15466,0.039,551
2019-07-18T02:44:07,42.805,6.029,CST-1368DR,8636,12081,15467,0.038,551
2019-07-18T02:47:09,42.805,6.029,CST-1368DR,8635,12080,15468,0.038,551
2019-07-18T02:50:10,42.805,6.029,CST-1368DR,8635,12081,15469,0.038,551
2019-07-18T02:53:12,42.805,6.029,CST-1368DR,8635,12080,15469,0.038,551
2019-07-18T02:56:14,42.805,6.029,CST-1368DR,8635,12079,15467,0.038,551
2019-07-18T02:59:15,42.805,6.029,CST-1368DR,8635,12078,15465,0.039,550
2019-07-18T03:02:17,42.805,6.029,CST-1368DR,8635,12078,15465,0.039,551
2019-07-18T03:05:19,42.805,6.029,CST-1368DR,8635,12077,15464,0.039,551
2019-07-18T03:08:20,42.805,6.029,CST-1368DR,8635,12079,15467,0.038,551
2019-07-18T03:11:22,42.805,6.029,CST-1368DR,8635,12080,15469,0.038,551
2019-07-18T03:14:24,42.805,6.029,CST-1368DR,8635,12077,15465,0.039,551
2019-07-18T03:17:26,42.805,6.029,CST-1368DR,8635,12076,15464,0.039,551
2019-07-18T03:20:27,42.805,6.029,CST-1368DR,8635,12080,15469,0.038,551
2019-07-18T03:23:29,42.805,6.029,CST-1368DR,8635,12080,15469,0.038,551
2019-07-18T03:26:31,42.805,6.029,CST-1368DR,8635,12080,15468,0.038,551
2019-07-18T03:29:32,42.805,6.029,CST-1368DR,8635,12081,15469,0.038,551
2019-07-18T03:32:34,42.805,6.029,CST-1368DR,8635,12081,15469,0.038,551
2019-07-18T03:35:36,42.805,6.029,CST-1368DR,8635,12078,15466,0.039,551
2019-07-18T03:38:37,42.805,6.029,CST-1368DR,8635,12074,15461,0.040,551
2019-07-18T03:41:39,42.805,6.029,CST-1368DR,8635,12079,15467,0.038,551
2019-07-18T03:44:40,42.805,6.029,CST-1368DR,8635,12079,15467,0.038,551
2019-07-18T03:47:42,42.805,6.029,CST-1368DR,8635,12076,15463,0.039,551
2019-07-18T03:50:44,42.805,6.029,CST-1368DR,8635,12078,15465,0.039,550
2019-07-18T03:53:45,42.805,6.029,CST-1368DR,8635,12075,15461,0.040,551
2019-07-18T03:56:47,42.805,6.029,CST-1368DR,8635,12079,15467,0.038,551
2019-07-18T03:59:49,42.805,6.029,CST-1368DR,8634,12080,15470,0.038,551
2019-07-18T04:02:50,42.805,6.029,CST-1368DR,8635,12081,15469,0.038,551
2019-07-18T04:05:52,42.805,6.029,CST-1368DR,8634,12079,15468,0.038,551
2019-07-18T04:08:53,42.805,6.029,CST-1368DR,8634,12080,15470,0.038,551
2019-07-18T04:11:55,42.805,6.029,CST-1368DR,8634,12080,15470,0.038,551
2019-07-18T04:14:57,42.805,6.029,CST-1368DR,8634,12079,15468,0.038,550
2019-07-18T04:17:58,42.805,6.029,CST-1368DR,8634,12079,15469,0.038,551
2019-07-18T04:21:00,42.805,6.029,CST-1368DR,8634,12078,15467,0.038,551
2019-07-18T04:24:02,42.805,6.029,CST-1368DR,8634,12077,15466,0.039,551
2019-07-18T04:27:03,42.805,6.029,CST-1368DR,8634,12079,15468,0.038,550
2019-07-18T04:30:05,42.805,6.029,CST-1368DR,8634,12079,15469,0.038,551
2019-07-18T04:33:07,42.805,6.029,CST-1368DR,8634,12080,15470,0.038,550
2019-07-18T04:36:09,42.805,6.029,CST-1368DR,8634,12071,15458,0.041,551
2019-07-18T04:39:10,42.805,6.029,CST-1368DR,8634,12080,15469,0.038,550
2019-07-18T04:42:12,42.805,6.029,CST-1368DR,8634,12076,15465,0.039,550
2019-07-18T04:45:13,42.805,6.029,CST-1368DR,8634,12079,15469,0.038,551
2019-07-18T04:48:15,42.805,6.029,CST-1368DR,8634,12078,15467,0.038,551
2019-07-18T04:51:17,42.805,6.029,CST-1368DR,8634,12081,15471,0.037,551
2019-07-18T04:54:18,42.805,6.029,CST-1368DR,8634,12080,15470,0.038,551
2019-07-18T04:57:20,42.805,6.029,CST-1368DR,8634,12080,15470,0.038,551
2019-07-18T05:00:22,42.805,6.029,CST-1368DR,8634,12078,15467,0.038,550
2019-07-18T05:03:23,42.805,6.029,CST-1368DR,8634,12079,15468,0.038,550
2019-07-18T05:06:25,42.805,6.029,CST-1368DR,8634,12071,15458,0.041,551
2019-07-18T05:09:26,42.805,6.029,CST-1368DR,8634,12078,15467,0.038,550
2019-07-18T05:12:28,42.805,6.029,CST-1368DR,8634,12072,15460,0.040,551
2019-07-18T05:15:30,42.805,6.029,CST-1368DR,8634,12077,15466,0.039,551
2019-07-18T05:18:31,42.805,6.029,CST-1368DR,8633,12079,15470,0.038,551
2019-07-18T05:21:33,42.805,6.029,CST-1368DR,8633,12079,15471,0.037,551
2019-07-18T05:24:35,42.805,6.029,CST-1368DR,8633,12078,15469,0.038,551
2019-07-18T05:27:36,42.805,6.029,CST-1368DR,8633,12078,15468,0.038,551
2019-07-18T05:30:38,42.805,6.029,CST-1368DR,8634,12079,15469,0.038,551
2019-07-18T05:33:39,42.805,6.029,CST-1368DR,8633,12078,15468,0.038,551
2019-07-18T05:36:41,42.805,6.029,CST-1368DR,8633,12079,15471,0.037,551
2019-07-18T05:39:43,42.805,6.029,CST-1368DR,8633,12079,15470,0.038,550
2019-07-18T05:42:44,42.805,6.029,CST-1368DR,8633,12077,15467,0.038,551
2019-07-18T05:45:46,42.805,6.029,CST-1368DR,8633,12077,15468,0.038,551
2019-07-18T05:48:47,42.805,6.029,CST-1368DR,8633,12078,15469,0.038,551
2019-07-18T05:51:49,42.805,6.029,CST-1368DR,8633,12080,15471,0.037,551
2019-07-18T05:54:51,42.805,6.029,CST-1368DR,8633,12079,15470,0.038,551
2019-07-18T05:57:52,42.805,6.029,CST-1368DR,8633,12078,15469,0.038,551
2019-07-18T06:00:54,42.805,6.029,CST-1368DR,8633,12078,15468,0.038,551
2019-07-18T06:03:56,42.805,6.029,CST-1368DR,8633,12076,15467,0.038,551
2019-07-18T06:06:57,42.805,6.029,CST-1368DR,8633,12078,15468,0.038,551
2019-07-18T06:09:59,42.805,6.029,CST-1368DR,8633,12077,15468,0.038,551
2019-07-18T06:13:01,42.805,6.029,CST-1368DR,8633,12078,15469,0.038,551
2019-07-18T06:16:02,42.805,6.029,CST-1368DR,8633,12078,15468,0.038,551
2019-07-18T06:19:04,42.805,6.029,CST-1368DR,8633,12074,15464,0.039,551
2019-07-18T06:22:05,42.805,6.029,CST-1368DR,8633,12078,15468,0.038,551
2019-07-18T06:25:07,42.805,6.029,CST-1368DR,8633,12077,15468,0.038,551
2019-07-18T06:28:09,42.805,6.029,CST-1368DR,8633,12073,15463,0.039,551
2019-07-18T06:31:10,42.805,6.029,CST-1368DR,8633,12077,15468,0.038,551
2019-07-18T06:34:12,42.805,6.029,CST-1368DR,8633,12078,15468,0.038,551
2019-07-18T06:37:14,42.805,6.029,CST-1368DR,8633,12072,15462,0.040,551
2019-07-18T06:40:16,42.805,6.029,CST-1368DR,8633,12074,15463,0.039,551
2019-07-18T06:43:17,42.805,6.029,CST-1368DR,8633,12074,15463,0.039,551
2019-07-18T06:46:19,42.805,6.029,CST-1368DR,8633,12079,15470,0.038,551
2019-07-18T06:49:21,42.805,6.029,CST-1368DR,8633,12076,15466,0.039,551
2019-07-18T06:52:23,42.805,6.029,CST-1368DR,8633,12078,15469,0.038,551
2019-07-18T06:55:25,42.805,6.029,CST-1368DR,8632,12078,15470,0.038,551
2019-07-18T06:58:26,42.805,6.029,CST-1368DR,8632,12077,15469,0.038,551
2019-07-18T07:01:28,42.805,6.029,CST-1368DR,8632,12076,15468,0.038,551
2019-07-18T07:04:30,42.805,6.029,CST-1368DR,8632,12077,15469,0.038,551
2019-07-18T07:07:32,42.805,6.029,CST-1368DR,8632,12078,15471,0.037,551
2019-07-18T07:10:34,42.805,6.029,CST-1368DR,8632,12075,15467,0.038,551
2019-07-18T07:13:35,42.805,6.029,CST-1368DR,8632,12072,15463,0.039,551
2019-07-18T07:16:37,42.805,6.029,CST-1368DR,8632,12076,15469,0.038,551
2019-07-18T07:19:39,42.805,6.029,CST-1368DR,8632,12078,15470,0.038,551
2019-07-18T07:22:40,42.805,6.029,CST-1368DR,8632,12077,15469,0.038,551
2019-07-18T07:25:42,42.805,6.029,CST-1368DR,8632,12076,15469,0.038,551
2019-07-18T07:28:44,42.805,6.029,CST-1368DR,8632,12075,15466,0.039,550
2019-07-18T07:31:46,42.805,6.029,CST-1368DR,8632,12076,15469,0.038,551
2019-07-18T07:34:47,42.805,6.029,CST-1368DR,8632,12076,15469,0.038,551
2019-07-18T07:37:49,42.805,6.029,CST-1368DR,8632,12077,15469,0.038,551
2019-07-18T07:40:51,42.805,6.029,CST-1368DR,8632,12077,15469,0.038,551
2019-07-18T07:43:53,42.805,6.029,CST-1368DR,8632,12077,15469,0.038,551
2019-07-18T07:46:54,42.805,6.029,CST-1368DR,8632,12077,15469,0.038,550
2019-07-18T07:49:56,42.805,6.029,CST-1368DR,8632,12076,15468,0.038,551
2019-07-18T07:52:58,42.805,6.029,CST-1368DR,8632,12076,15468,0.038,551
2019-07-18T07:56:00,42.805,6.029,CST-1368DR,8632,12075,15467,0.038,551
2019-07-18T07:59:01,42.805,6.029,CST-1368DR,8632,12076,15468,0.038,551
2019-07-18T08:02:03,42.805,6.029,CST-1368DR,8632,12075,15467,0.038,551
2019-07-18T08:05:05,42.805,6.029,CST-1368DR,8632,12075,15466,0.039,551
2019-07-18T08:08:07,42.805,6.029,CST-1368DR,8632,12074,15465,0.039,551
2019-07-18T08:11:09,42.805,6.029,CST-1368DR,8632,12076,15469,0.038,551
2019-07-18T08:14:10,42.805,6.029,CST-1368DR,8632,12076,15468,0.038,551
2019-07-18T08:17:12,42.805,6.029,CST-1368DR,8632,12074,15466,0.039,550
2019-07-18T08:20:14,42.805,6.029,CST-1368DR,8632,12074,15465,0.039,551
2019-07-18T08:23:16,42.805,6.029,CST-1368DR,8631,12062,15452,0.042,551
2019-07-18T08:26:17,42.805,6.029,CST-1368DR,8632,12074,15466,0.039,550
2019-07-18T08:29:19,42.805,6.029,CST-1368DR,8631,12075,15469,0.038,551
2019-07-18T08:32:21,42.805,6.029,CST-1368DR,8631,12075,15469,0.038,551
2019-07-18T08:35:23,42.805,6.029,CST-1368DR,8631,12076,15470,0.038,551
2019-07-18T08:38:24,42.805,6.029,CST-1368DR,8631,12066,15456,0.041,550
2019-07-18T08:41:26,42.805,6.029,CST-1368DR,8631,12072,15464,0.039,551
2019-07-18T08:44:28,42.805,6.029,CST-1368DR,8631,12074,15467,0.038,551
2019-07-18T08:47:30,42.805,6.029,CST-1368DR,8631,12074,15467,0.038,551
2019-07-18T08:50:31,42.805,6.029,CST-1368DR,8631,12076,15470,0.038,551
2019-07-18T08:53:33,42.805,6.029,CST-1368DR,8631,12075,15469,0.038,551
2019-07-18T08:56:35,42.805,6.029,CST-1368DR,8631,12076,15469,0.038,551
2019-07-18T08:59:36,42.805,6.029,CST-1368DR,8631,12074,15468,0.038,551
2019-07-18T09:02:38,42.805,6.029,CST-1368DR,8631,12076,15470,0.038,551
2019-07-18T09:05:40,42.805,6.029,CST-1368DR,8631,12074,15468,0.038,551
2019-07-18T09:08:42,42.805,6.029,CST-1368DR,8631,12060,15449,0.043,550
2019-07-18T09:11:43,42.805,6.029,CST-1368DR,8631,12075,15468,0.038,550
2019-07-18T09:14:45,42.805,6.029,CST-1368DR,8631,12073,15466,0.039,551
2019-07-18T09:17:47,42.805,6.029,CST-1368DR,8631,12076,15470,0.038,551
2019-07-18T09:20:49,42.805,6.029,CST-1368DR,8631,12076,15469,0.038,551
2019-07-18T09:23:50,42.805,6.029,CST-1368DR,8631,12076,15470,0.038,551
2019-07-18T09:26:52,42.805,6.029,CST-1368DR,8631,12075,15468,0.038,551
2019-07-18T09:29:54,42.805,6.029,CST-1368DR,8631,12076,15469,0.038,551
2019-07-18T09:32:56,42.805,6.029,CST-1368DR,8631,12071,15463,0.039,551
2019-07-18T09:35:57,42.805,6.029,CST-1368DR,8631,12074,15467,0.038,551
2019-07-18T09:38:59,42.805,6.029,CST-1368DR,8631,12075,15468,0.038,551
2019-07-18T09:42:01,42.805,6.029,CST-1368DR,8631,12073,15466,0.039,551
2019-07-18T09:45:03,42.805,6.029,CST-1368DR,8631,12075,15469,0.038,551
2019-07-18T09:48:04,42.805,6.029,CST-1368DR,8631,12074,15467,0.038,551
2019-07-18T09:51:06,42.805,6.029,CST-1368DR,8631,12075,15468,0.038,551
2019-07-18T09:54:08,42.805,6.029,CST-1368DR,8631,12076,15470,0.038,551
2019-07-18T09:57:10,42.805,6.029,CST-1368DR,8631,12076,15469,0.038,551
2019-07-18T10:00:11,42.805,6.029,CST-1368DR,8631,12077,15471,0.037,551
2019-07-18T10:03:13,42.805,6.029,CST-1368DR,8631,12074,15467,0.038,551
2019-07-18T10:06:15,42.805,6.029,CST-1368DR,8630,12069,15462,0.040,551
2019-07-18T10:09:17,42.805,6.029,CST-1368DR,8630,12066,15458,0.041,551
2019-07-18T10:12:18,42.805,6.029,CST-1368DR,8630,12073,15468,0.038,551
2019-07-18T10:15:20,42.805,6.029,CST-1368DR,8630,12076,15471,0.037,551
2019-07-18T10:18:22,42.805,6.029,CST-1368DR,8630,12076,15471,0.037,551
2019-07-18T10:21:24,42.805,6.029,CST-1368DR,8630,12074,15468,0.038,550
2019-07-18T10:24:25,42.805,6.029,CST-1368DR,8630,12075,15471,0.037,551
2019-07-18T10:27:27,42.805,6.029,CST-1368DR,8630,12076,15471,0.037,551
2019-07-18T10:30:29,42.805,6.029,CST-1368DR,8630,12075,15471,0.037,551
2019-07-18T10:33:30,42.805,6.029,CST-1368DR,8630,12067,15459,0.040,551
2019-07-18T10:36:32,42.805,6.029,CST-1368DR,8630,12071,15465,0.039,551
2019-07-18T10:39:34,42.805,6.029,CST-1368DR,8630,12076,15471,0.037,551
2019-07-18T10:42:36,42.805,6.029,CST-1368DR,8630,12077,15472,0.037,551
2019-07-18T10:45:37,42.805,6.029,CST-1368DR,8630,12075,15471,0.037,551
2019-07-18T10:48:39,42.805,6.029,CST-1368DR,8630,12074,15469,0.038,551
2019-07-18T10:51:41,42.805,6.029,CST-1368DR,8630,12075,15470,0.038,550
2019-07-18T10:54:43,42.805,6.029,CST-1368DR,8630,12074,15469,0.038,551
2019-07-18T10:57:44,42.805,6.029,CST-1368DR,8630,12074,15468,0.038,551
2019-07-18T11:00:46,42.805,6.029,CST-1368DR,8630,12075,15470,0.038,551
2019-07-18T11:03:48,42.805,6.029,CST-1368DR,8630,12073,15468,0.038,551
2019-07-18T11:06:50,42.805,6.029,CST-1368DR,8630,12075,15470,0.038,551
2019-07-18T11:09:52,42.805,6.029,CST-1368DR,8630,12073,15467,0.038,551
2019-07-18T11:12:53,42.805,6.029,CST-1368DR,8630,12072,15467,0.038,551
2019-07-18T11:15:55,42.805,6.029,CST-1368DR,8630,12074,15469,0.038,551
2019-07-18T11:18:57,42.805,6.029,CST-1368DR,8630,12074,15469,0.038,551
2019-07-18T11:21:58,42.805,6.029,CST-1368DR,8630,12068,15461,0.040,551
2019-07-18T11:25:00,42.805,6.029,CST-1368DR,8630,12074,15469,0.038,551
2019-07-18T11:28:02,42.805,6.029,CST-1368DR,8630,12073,15468,0.038,551
2019-07-18T11:31:04,42.805,6.029,CST-1368DR,8630,12075,15470,0.038,551
2019-07-18T11:34:05,42.805,6.029,CST-1368DR,8630,12075,15470,0.038,551
2019-07-18T11:37:07,42.805,6.029,CST-1368DR,8630,12074,15468,0.038,551
2019-07-18T11:40:09,42.805,6.029,CST-1368DR,8630,12075,15470,0.038,550
2019-07-18T11:43:11,42.805,6.029,CST-1368DR,8630,12074,15469,0.038,551
2019-07-18T11:46:12,42.805,6.029,CST-1368DR,8629,12073,15470,0.038,550
2019-07-18T11:49:14,42.805,6.029,CST-1368DR,8629,12074,15470,0.038,550
2019-07-18T11:52:16,42.805,6.029,CST-1368DR,8629,12070,15465,0.039,551
2019-07-18T11:55:18,42.805,6.029,CST-1368DR,8629,12073,15469,0.038,551
2019-07-18T11:58:20,42.805,6.029,CST-1368DR,8629,12073,15469,0.038,551
2019-07-18T12:01:21,42.805,6.029,CST-1368DR,8629,12074,15471,0.037,551
2019-07-18T12:04:23,42.805,6.029,CST-1368DR,8629,12072,15468,0.038,551
2019-07-18T12:07:25,42.805,6.029,CST-1368DR,8629,12074,15470,0.038,551
2019-07-18T12:10:27,42.805,6.029,CST-1368DR,8629,12074,15470,0.038,551
2019-07-18T12:13:28,42.805,6.029,CST-1368DR,8629,12073,15470,0.038,551
2019-07-18T12:16:30,42.805,6.029,CST-1368DR,8629,12042,15430,0.048,550
2019-07-18T12:19:32,42.805,6.029,CST-1368DR,8629,12071,15467,0.038,550
2019-07-18T12:22:34,42.805,6.029,CST-1368DR,8629,12071,15466,0.039,550
2019-07-18T12:25:35,42.805,6.029,CST-1368DR,8629,12072,15467,0.038,551
2019-07-18T12:28:37,42.805,6.029,CST-1368DR,8629,12070,15465,0.039,551
2019-07-18T12:31:39,42.805,6.029,CST-1368DR,8629,12074,15470,0.038,551
2019-07-18T12:34:41,42.805,6.029,CST-1368DR,8629,12071,15467,0.038,551
2019-07-18T12:37:42,42.805,6.029,CST-1368DR,8629,12069,15464,0.039,551
2019-07-18T12:40:44,42.805,6.029,CST-1368DR,8629,12071,15467,0.038,551
2019-07-18T12:43:46,42.805,6.029,CST-1368DR,8629,12071,15467,0.038,551
2019-07-18T12:46:48,42.805,6.029,CST-1368DR,8629,12071,15467,0.038,551
2019-07-18T12:49:49,42.805,6.029,CST-1368DR,8629,12073,15469,0.038,551
2019-07-18T12:52:51,42.805,6.029,CST-1368DR,8629,12062,15456,0.041,551
2019-07-18T12:55:53,42.805,6.029,CST-1368DR,8629,12066,15460,0.040,551
2019-07-18T12:58:55,42.805,6.029,CST-1368DR,8629,12073,15469,0.038,551
2019-07-18T13:01:57,42.805,6.029,CST-1368DR,8629,12071,15467,0.038,551
2019-07-18T13:04:58,42.805,6.029,CST-1368DR,8628,12071,15468,0.038,551
2019-07-18T13:08:00,42.805,6.029,CST-1368DR,8629,12074,15470,0.038,551
2019-07-18T13:11:02,42.805,6.029,CST-1368DR,8629,12072,15468,0.038,551
2019-07-18T13:14:03,42.805,6.029,CST-1368DR,8628,12073,15471,0.037,551
2019-07-18T13:17:05,42.805,6.029,CST-1368DR,8628,12073,15471,0.037,551
2019-07-18T13:20:06,42.805,6.029,CST-1368DR,8628,12067,15464,0.039,551
2019-07-18T13:23:08,42.805,6.029,CST-1368DR,8629,12071,15467,0.038,551
2019-07-18T13:26:10,42.805,6.029,CST-1368DR,8628,12071,15468,0.038,551
2019-07-18T13:29:11,42.805,6.029,CST-1368DR,8628,12069,15466,0.039,551
2019-07-18T13:32:13,42.805,6.029,CST-1368DR,8628,12069,15465,0.039,551
2019-07-18T13:35:15,42.805,6.029,CST-1368DR,8628,12070,15466,0.039,551
2019-07-18T13:38:16,42.805,6.029,CST-1368DR,8628,12068,15464,0.039,551
2019-07-18T13:41:18,42.805,6.029,CST-1368DR,8628,12070,15467,0.038,551
2019-07-18T13:44:20,42.805,6.029,CST-1368DR,8628,12072,15469,0.038,551
2019-07-18T13:47:21,42.805,6.029,CST-1368DR,8628,12072,15469,0.038,551
2019-07-18T13:50:23,42.805,6.029,CST-1368DR,8628,12069,15466,0.039,551
2019-07-18T13:53:24,42.805,6.029,CST-1368DR,8628,12066,15461,0.040,551
2019-07-18T13:56:26,42.805,6.029,CST-1368DR,8628,12069,15466,0.039,551
2019-07-18T13:59:28,42.805,6.029,CST-1368DR,8628,12070,15467,0.038,551
2019-07-18T14:02:29,42.805,6.029,CST-1368DR,8628,12069,15466,0.039,550
2019-07-18T14:05:31,42.805,6.029,CST-1368DR,8628,12069,15466,0.039,551
2019-07-18T14:08:33,42.805,6.029,CST-1368DR,8628,12069,15466,0.039,551
2019-07-18T14:11:34,42.805,6.029,CST-1368DR,8628,12065,15461,0.040,550
2019-07-18T14:14:36,42.805,6.029,CST-1368DR,8628,12070,15467,0.038,551
2019-07-18T14:17:38,42.805,6.029,CST-1368DR,8628,12070,15467,0.038,551
2019-07-18T14:20:39,42.805,6.029,CST-1368DR,8628,12069,15465,0.039,551
2019-07-18T14:23:41,42.805,6.029,CST-1368DR,8628,12071,15468,0.038,551
2019-07-18T14:26:43,42.805,6.029,CST-1368DR,8628,12069,15466,0.039,551
2019-07-18T14:29:45,42.805,6.029,CST-1368DR,8628,12061,15456,0.041,551
2019-07-18T14:32:46,42.805,6.029,CST-1368DR,8628,12070,15466,0.039,551
2019-07-18T14:35:48,42.805,6.029,CST-1368DR,8628,12066,15462,0.040,551
2019-07-18T14:38:50,42.805,6.029,CST-1368DR,8628,12070,15467,0.038,551
2019-07-18T14:41:52,42.805,6.029,CST-1368DR,8628,12071,15469,0.038,551
2019-07-18T14:44:53,42.805,6.029,CST-1368DR,8628,12070,15467,0.038,550
2019-07-18T14:47:55,42.805,6.029,CST-1368DR,8628,12071,15468,0.038,551
2019-07-18T14:50:57,42.805,6.029,CST-1368DR,8628,12071,15468,0.038,551
2019-07-18T14:53:58,42.805,6.029,CST-1368DR,8628,12071,15468,0.038,551
2019-07-18T14:57:00,42.805,6.029,CST-1368DR,8628,12071,15468,0.038,551
2019-07-18T15:00:02,42.805,6.029,CST-1368DR,8628,12066,15462,0.040,551
2019-07-18T15:03:04,42.805,6.029,CST-1368DR,8628,12070,15467,0.038,551
2019-07-18T15:06:05,42.805,6.029,CST-1368DR,8628,12069,15466,0.039,551
2019-07-18T15:09:07,42.805,6.029,CST-1368DR,8627,12067,15465,0.039,551
2019-07-18T15:12:09,42.805,6.029,CST-1368DR,8628,12070,15466,0.039,551
2019-07-18T15:15:11,42.805,6.029,CST-1368DR,8628,12067,15464,0.039,551
2019-07-18T15:18:12,42.805,6.029,CST-1368DR,8627,12069,15467,0.038,551
2019-07-18T15:21:14,42.805,6.029,CST-1368DR,8627,12071,15469,0.038,551
2019-07-18T15:24:16,42.805,6.029,CST-1368DR,8627,12070,15469,0.038,551
2019-07-18T15:27:18,42.805,6.029,CST-1368DR,8627,12070,15468,0.038,551
2019-07-18T15:30:19,42.805,6.029,CST-1368DR,8627,12068,15466,0.039,551
2019-07-18T15:33:21,42.805,6.029,CST-1368DR,8627,12069,15467,0.038,551
2019-07-18T15:36:23,42.805,6.029,CST-1368DR,8627,12069,15467,0.038,551
2019-07-18T15:39:25,42.805,6.029,CST-1368DR,8627,12070,15469,0.038,551
2019-07-18T15:42:26,42.805,6.029,CST-1368DR,8627,12066,15464,0.039,551
2019-07-18T15:45:28,42.805,6.029,CST-1368DR,8627,12069,15467,0.038,551
2019-07-18T15:48:30,42.805,6.029,CST-1368DR,8627,12068,15466,0.039,551
2019-07-18T15:51:32,42.805,6.029,CST-1368DR,8627,12069,15467,0.038,551
2019-07-18T15:54:33,42.805,6.029,CST-1368DR,8627,12064,15461,0.040,551
2019-07-18T15:57:35,42.805,6.029,CST-1368DR,8627,12069,15467,0.038,551
2019-07-18T16:00:37,42.805,6.029,CST-1368DR,8627,12068,15466,0.039,551
2019-07-18T16:03:39,42.805,6.029,CST-1368DR,8627,12069,15468,0.038,550
2019-07-18T16:06:40,42.805,6.029,CST-1368DR,8627,12044,15436,0.046,551
2019-07-18T16:09:42,42.805,6.029,CST-1368DR,8627,12069,15467,0.038,551
2019-07-18T16:12:44,42.805,6.029,CST-1368DR,8627,12071,15469,0.038,551
2019-07-18T16:15:46,42.805,6.029,CST-1368DR,8627,12070,15468,0.038,551
2019-07-18T16:18:47,42.805,6.029,CST-1368DR,8627,12070,15469,0.038,551
2019-07-18T16:21:49,42.805,6.029,CST-1368DR,8627,12069,15467,0.038,551
2019-07-18T16:24:51,42.805,6.029,CST-1368DR,8627,12071,15469,0.038,551
2019-07-18T16:27:53,42.805,6.029,CST-1368DR,8627,12068,15466,0.039,550
2019-07-18T16:30:55,42.805,6.029,CST-1368DR,8627,12069,15467,0.038,551
2019-07-18T16:33:56,42.805,6.029,CST-1368DR,8626,12068,15467,0.038,551
2019-07-18T16:36:58,42.805,6.029,CST-1368DR,8627,12067,15464,0.039,551